Content
SEND FEEDBACK

Daily
Averages
Monthly
Summary
Mexico

ISLA MUJERES, QUINTANA ROO


Home > North America > Mexico > Quintana Roo
Elevation: 16 feet     Latitude: 21 14N     Longitude: 086 44W

WEATHER
 
SELECT A DAY
Number of Records: 163,979;   Date Range: 1/1/95 - 9/21/14
 
SHARE

PRINT THIS DATA

[ ← Previous Day ]
WEATHER ALMANAC - FEBRUARY 13, 2013
[ Next Day → ]
[ °C ]   °F
Weather ElementAverageHighLow
Temperature80.1 °F84.2 °F (9:45 am)75.2 °F (11:50 pm)
Dewpoint71.4 °F71.6 °F (1:44 am)69.8 °F (5:43 am)
Humidity75.1 %89 % (11:50 pm)62 % (11:47 am)
Barometer29.92 in29.97 in (8:50 am)29.87 in (3:44 pm)
Wind Speed12.4 mph21.9 mph (12:44 pm)
Weather ElementAverage
Visibility7 mi
Wind DirectionSSE (150.4 °)

Weather ElementTotal
Precipitation---
Cooling Degree Days14.7 (Base 65)
Growing Degree Days29.7 (Base 50)
Averaged from 23 records on February 13, 2013
WEATHER CONDITIONS BREAKOUT
WIND DIRECTION BREAKOUT
WEATHER BY HOUR - FEBRUARY 13, 2013
[ °C ]   °F
Local TimeTemperatureDewpointHumidityBarometerVisibilityWind DirectionWind SpeedGust SpeedPrecipitationEventsConditions
1:44 AM78.8 °F71.6 °F78 %29.91 in7.0 miSSE (150°)11.5 mphClear
2:46 AM77.0 °F71.6 °F83 %29.90 in7.0 miSSE (150°)10.4 mphPartly Cloudy
3:45 AM77.0 °F71.6 °F83 %29.90 in7.0 miSE (140°)12.7 mphScattered Clouds
4:44 AM77.0 °F71.6 °F83 %29.90 in7.0 miSSE (160°)10.4 mphScattered Clouds
5:43 AM77.0 °F69.8 °F78 %29.91 in7.0 miSE (140°)9.2 mphScattered Clouds
6:42 AM77.0 °F71.6 °F83 %29.93 in7.0 miSE (140°)10.4 mphScattered Clouds
7:47 AM80.6 °F71.6 °F74 %29.96 in7.0 miSE (130°)9.2 mphScattered Clouds
8:50 AM82.4 °F71.6 °F70 %29.97 in7.0 miSE (140°)19.6 mphScattered Clouds
9:45 AM84.2 °F71.6 °F66 %29.97 in7.0 miSE (140°)18.4 mphScattered Clouds
10:46 AM84.2 °F71.6 °F66 %29.96 in7.0 miSSE (160°)20.7 mphScattered Clouds
11:47 AM84.2 °F69.8 °F62 %29.96 in7.0 miSE (140°)18.4 mphScattered Clouds
12:44 PM84.2 °F71.6 °F66 %29.92 in7.0 miSSE (150°)21.9 mphScattered Clouds
1:47 PM84.2 °F69.8 °F62 %29.89 in7.0 miSouth (170°)18.4 mphScattered Clouds
2:42 PM82.4 °F71.6 °F70 %29.88 in7.0 miSSE (150°)19.6 mphScattered Clouds
3:44 PM82.4 °F71.6 °F70 %29.87 in7.0 miSSE (160°)19.6 mphScattered Clouds
4:41 PM82.4 °F71.6 °F70 %29.88 in7.0 miSouth (170°)9.2 mphScattered Clouds
5:45 PM80.6 °F71.6 °F74 %29.89 in7.0 miSSE (160°)8.1 mphScattered Clouds
6:40 PM78.8 °F71.6 °F78 %29.89 in7.0 miSSE (150°)6.9 mphScattered Clouds
7:47 PM78.8 °F71.6 °F78 %29.91 in7.0 miSSE (160°)9.2 mphScattered Clouds
8:46 PM78.8 °F71.6 °F78 %29.92 in7.0 miSSE (150°)4.6 mphScattered Clouds
9:45 PM77.0 °F71.6 °F83 %29.94 in7.0 miSSE (160°)4.6 mphScattered Clouds
10:48 PM77.0 °F71.6 °F83 %29.94 in7.0 miSE (140°)5.8 mphPartly Cloudy
11:50 PM75.2 °F71.6 °F89 %29.91 in7.0 miSSE (150°)5.8 mphPartly Cloudy
Hourly data recorded from MMUN, located miles away from Isla Mujeres, Quintana Roo







STORIES FROM OUR PARTNERS